sat.trackr.live / text

‹ back to catalog

STARLINK-32917

NORAD 62921 · 2025-027Q

PAYLOAD ACTIVE UNKNOWN

§ Identity

Operator
Country
US
Launch date
2025-02-08
Launch site
AFETR
Launch vehicle
Mass (kg)
RCS (m²)

Purposes: comms

External: N2YO · Heavens-Above · Gunter

§ Orbital elements

Epoch: 2026-09-21T22:15:11.869344Z

Period
94.27 min
Inclination
43.0010°
Eccentricity
0.0000208
Mean motion
15.27587935 rev/d
Perigee alt
482.9 km
Apogee alt
483.2 km
Semi-major
6,861.2 km
B*
5.2381e-4
RAAN
100.6797°
Arg perigee
309.4603°
Mean anomaly
50.6230°
Rev number
9,155

§ Raw data

STARLINK-329171 62921U 25027Q   26264.92722071  .00014184  00000+0  52381-3 0  99952 62921  43.0010 100.6797 0000208 309.4603  50.6230 15.27587935 91553

JSON: /api/v1/satellites/62921 · /tle

For live sub-satellite position, see the globe view (requires WebGL).

§ Visibility from observer

Set your observer location to see the next 7 days of passes ≥ 10°. The values pass through the URL so the page stays shareable.

No JS? Fill the form by hand. The geolocation button needs JavaScript.